This is the latest recevied weather packets stored in our database for station/object W2EH. If no packets are shown the sender has not sent any weather packets the latest 10 day(s).
| Time | Temp. | Humidity | Pressure | Rain* | Wind** | Luminosity | Snow |
|---|---|---|---|---|---|---|---|
| 1777416158 | 28.89° C | 79% | 1008.2 hPa | 0 mm | - | 89 W/m² | - |
| 1777415858 | 28.33° C | 79% | 1008 hPa | 0 mm | - | 80 W/m² | - |
| 1777415554 | 28.33° C | 78% | 1008.2 hPa | 0 mm | - | 57 W/m² | - |
| 1777415250 | 28.33° C | 78% | 1008.5 hPa | 0 mm | - | 60 W/m² | - |
| 1777414945 | 28.33° C | 78% | 1008.4 hPa | 0 mm | - | 82 W/m² | - |
| 1777414644 | 28.33° C | 77% | 1008.8 hPa | 0 mm | - | 62 W/m² | - |
| 1777414339 | 28.33° C | 78% | 1008.6 hPa | 0 mm | - | 64 W/m² | - |
| 1777414035 | 28.33° C | 77% | 1008.7 hPa | 0 mm | - | 71 W/m² | - |
| 1777413729 | 28.33° C | 78% | 1008.7 hPa | 0 mm | - | 91 W/m² | - |
| 1777413426 | 28.33° C | 78% | 1008.8 hPa | 0 mm | - | 83 W/m² | - |
| 1777413122 | 28.33° C | 78% | 1008.8 hPa | 0 mm | - | 52 W/m² | - |
| 1777412816 | 28.33° C | 78% | 1009 hPa | 0 mm | - | 59 W/m² | - |
| 1777412516 | 28.33° C | 78% | 1009.2 hPa | 0 mm | - | 53 W/m² | - |
| 1777412213 | 28.33° C | 78% | 1009.3 hPa | 0 mm | - | 73 W/m² | - |
| 1777411910 | 28.33° C | 77% | 1009.2 hPa | 0 mm | - | 90 W/m² | - |
| 1777411609 | 28.33° C | 78% | 1009.3 hPa | 0 mm | - | 81 W/m² | - |
| 1777411304 | 28.33° C | 78% | 1009.4 hPa | 0 mm | - | 81 W/m² | - |
| 1777411003 | 28.33° C | 78% | 1009.6 hPa | 0 mm | - | 84 W/m² | - |
| 1777410703 | 28.33° C | 77% | 1009.6 hPa | 0 mm | - | 91 W/m² | - |
| 1777410398 | 28.33° C | 77% | 1009.7 hPa | 0 mm | - | 82 W/m² | - |
| 1777410097 | 28.33° C | 77% | 1009.7 hPa | 0 mm | - | 107 W/m² | - |
| 1777409792 | 28.33° C | 78% | 1009.8 hPa | 0 mm | - | 134 W/m² | - |
| 1777409488 | 28.33° C | 78% | 1010 hPa | 0 mm | - | 161 W/m² | - |
| 1777409184 | 28.33° C | 78% | 1009.9 hPa | 0 mm | - | 125 W/m² | - |
| 1777408880 | 28.33° C | 79% | 1010 hPa | 0 mm | - | 130 W/m² | - |
* Rain latest hour (hover to see other rain measurements)
** Current wind speed in m/s (hover to see current wind gust speed)